Location: Wytheville
(36.9480°N, 81.0850°W)
Time: 22:18:44

Humanity Star - Visible Passes

Search period start: 17 March 2018 00:00
Search period end: 27 March 2018 00:00
Orbit: 252 x 324 km, 82.9° (Epoch: 17 March)

Date Brightness Start Highest point End Pass type
(mag) Time Alt. Az. Time Alt. Az. Time Alt. Az.
20 Mar 8.1 05:47:49 10° ENE 05:48:36 11° ENE 05:49:24 10° E visible
21 Mar 7.9 05:43:21 10° NE 05:44:21 12° ENE 05:45:21 10° ESE visible
22 Mar 7.8 05:36:17 10° NE 05:37:08 12° ENE 05:37:59 10° ESE visible
